This demonstration page uses our WeatherBlox Daily Observations layout. Learn more.

38.88101, -77.10428

Hourly Observations for August 29, 2018

Temp ( °F °C ) Dew Point ( °F °C ) Humidity (%) Winds ( mph kmh ) Pressure ( in mb ) Visibility ( mi km ) Precip ( " mm )
12:52 am 00:52 Mostly Cloudy 81 27.2 76 24.4 85 85 S 5 7 30.07 1018 10 16.0934 0 0
1:52 am 01:52 Mostly Cloudy 81 27.2 76 24.4 85 85 S 6 9 30.05 1018 10 16.0934 0 0
2:52 am 02:52 Mostly Cloudy 80 26.7 76 24.4 87 87 S 6 9 30.06 1018 9 14.48406 0 0
3:52 am 03:52 Mostly Cloudy 80 26.7 76 24.4 87 87 S 7 11 30.06 1018 8 12.87472 0 0
4:52 am 04:52 Mostly Cloudy 80 26.7 76 24.4 87 87 S 5 7 30.06 1018 7 11.26538 0 0
5:52 am 05:52 Mostly Cloudy 79 26.1 76 24.4 90 90 S 6 9 30.05 1018 7 11.26538 0 0
6:52 am 06:52 Mostly Sunny 79 26.1 75 23.9 88 88 S 8 13 30.07 1018 7 11.26538 0 0
7:52 am 07:52 Mostly Sunny 80 26.7 76 24.4 87 87 S 6 9 30.07 1018 7 11.26538 0 0
8:52 am 08:52 Partly Cloudy 81 27.2 76 24.4 85 85 S 7 11 30.07 1018 7 11.26538 0 0
9:52 am 09:52 Mostly Sunny 84 28.9 76 24.4 77 77 S 7 11 30.08 1019 9 14.48406 0 0
10:52 am 10:52 Mostly Sunny 87 30.6 76 24.4 70 70 SSE 6 9 30.08 1019 10 16.0934 0 0
11:52 am 11:52 Mostly Sunny 90 32.2 76 24.4 63 63 SSE 7 11 30.07 1018 10 16.0934 0 0
12:52 pm 12:52 Partly Cloudy 92 33.3 76 24.4 60 60 S 9 15 30.04 1017 10 16.0934 0 0
1:52 pm 13:52 Partly Cloudy 93 33.9 75 23.9 56 56 S 12 19 30.04 1017 10 16.0934 0 0
2:52 pm 14:52 Partly Cloudy 93 33.9 74 23.3 54 54 S 13 20 30.01 1016 10 16.0934 0 0
3:52 pm 15:52 Partly Cloudy 93 33.9 74 23.3 54 54 S 14 22 29.99 1016 10 16.0934 0 0
4:52 pm 16:52 Mostly Cloudy 94 34.4 73 22.8 51 51 S 10 17 29.98 1015 10 16.0934 0 0
5:52 pm 17:52 Partly Cloudy 91 32.8 75 23.9 59 59 S 14 22 29.97 1015 10 16.0934 0 0
6:52 pm 18:52 Partly Cloudy 89 31.7 76 24.4 65 65 S 8 13 29.96 1015 10 16.0934 0 0
7:52 pm 19:52 Partly Cloudy 88 31.1 75 23.9 66 66 S 9 15 29.96 1015 10 16.0934 0 0
8:52 pm 20:52 Partly Cloudy 86 30 76 24.4 72 72 SW 7 11 29.98 1015 10 16.0934 0 0
9:52 pm 21:52 Partly Cloudy 85 29.4 75 23.9 72 72 S 8 13 30.01 1016 10 16.0934 0 0
10:52 pm 22:52 Partly Cloudy 84 28.9 76 24.4 77 77 S 7 11 30.01 1016 10 16.0934 0 0
11:52 pm 23:52 Partly Cloudy 84 28.9 73 22.8 70 70 SSW 8 13 30.01 1016 10 16.0934 0 0

Powered by AerisWeather